Time,TemperatureF,DewpointF,PressureIn,WindDirection,WindDirectionDegrees,WindSpeedMPH,WindSpeedGustMPH,Humidity,HourlyPrecipIn,Conditions,Clouds,dailyrainin,SolarRadiationWatts/m^2,SoftwareType,DateUTC
2013-02-13 00:10:00,32.1,25.0,29.92,WSW,247,8.0,-999.0,74,-99.99,,,0.00,0,weatherlink.com 1.10,2013-02-13 05:10:00,
2013-02-13 00:25:00,32.3,25.0,29.92,WSW,251,6.0,-999.0,73,-99.99,,,0.00,0,weatherlink.com 1.10,2013-02-13 05:25:00,
2013-02-13 00:40:00,32.3,24.0,29.92,West,263,2.0,-999.0,72,-99.99,,,0.00,0,weatherlink.com 1.10,2013-02-13 05:40:00,
2013-02-13 00:55:00,32.2,24.0,29.91,West,267,2.0,-999.0,73,-99.99,,,0.00,0,weatherlink.com 1.10,2013-02-13 05:55:00,
2013-02-13 01:10:00,32.0,25.0,29.91,SW,223,1.0,-999.0,74,-99.99,,,0.00,0,weatherlink.com 1.10,2013-02-13 06:10:00,
2013-02-13 01:25:00,31.9,25.0,29.91,SW,218,1.0,-999.0,76,-99.99,,,0.00,0,weatherlink.com 1.10,2013-02-13 06:25:00,
2013-02-13 01:40:00,31.7,25.0,29.92,SW,218,0.0,-999.0,77,-99.99,,,0.00,0,weatherlink.com 1.10,2013-02-13 06:40:00,
2013-02-13 01:55:00,31.5,26.0,29.91,SW,219,0.0,-999.0,79,-99.99,,,0.00,0,weatherlink.com 1.10,2013-02-13 06:55:00,
2013-02-13 02:10:00,31.4,26.0,29.91,SW,221,0.0,-999.0,80,-99.99,,,0.00,0,weatherlink.com 1.10,2013-02-13 07:10:00,
2013-02-13 02:25:00,31.2,26.0,29.91,SW,221,0.0,-999.0,81,-99.99,,,0.00,0,weatherlink.com 1.10,2013-02-13 07:25:00,
2013-02-13 02:40:00,31.2,26.0,29.91,SW,221,2.0,-999.0,82,-99.99,,,0.00,0,weatherlink.com 1.10,2013-02-13 07:40:00,
2013-02-13 02:55:00,31.0,26.0,29.90,SW,221,0.0,-999.0,82,-99.99,,,0.00,0,weatherlink.com 1.10,2013-02-13 07:55:00,
2013-02-13 03:10:00,31.0,26.0,29.90,SW,221,0.0,-999.0,82,-99.99,,,0.00,0,weatherlink.com 1.10,2013-02-13 08:10:00,
2013-02-13 03:25:00,30.8,26.0,29.90,SW,221,0.0,-999.0,83,-99.99,,,0.00,0,weatherlink.com 1.10,2013-02-13 08:25:00,
2013-02-13 03:40:00,30.5,26.0,29.89,SW,221,1.0,-999.0,83,-99.99,,,0.00,0,weatherlink.com 1.10,2013-02-13 08:40:00,
2013-02-13 03:55:00,30.3,26.0,29.89,SW,221,0.0,-999.0,84,-99.99,,,0.00,0,weatherlink.com 1.10,2013-02-13 08:55:00,
2013-02-13 04:10:00,30.2,26.0,29.89,SW,217,0.0,-999.0,84,-99.99,,,0.00,0,weatherlink.com 1.10,2013-02-13 09:10:00,
2013-02-13 04:25:00,30.2,26.0,29.88,SW,217,0.0,-999.0,84,-99.99,,,0.00,0,weatherlink.com 1.10,2013-02-13 09:25:00,
2013-02-13 04:40:00,30.1,26.0,29.88,SW,220,0.0,-999.0,84,-99.99,,,0.00,0,weatherlink.com 1.10,2013-02-13 09:40:00,
2013-02-13 04:55:00,30.1,26.0,29.88,SW,220,0.0,-999.0,84,-99.99,,,0.00,0,weatherlink.com 1.10,2013-02-13 09:55:00,
2013-02-13 05:10:00,30.0,26.0,29.88,SW,220,0.0,-999.0,84,-99.99,,,0.00,0,weatherlink.com 1.10,2013-02-13 10:10:00,
2013-02-13 05:25:00,30.0,26.0,29.88,SW,220,0.0,-999.0,84,-99.99,,,0.00,0,weatherlink.com 1.10,2013-02-13 10:25:00,
2013-02-13 05:40:00,30.0,26.0,29.88,SW,220,0.0,-999.0,84,-99.99,,,0.00,0,weatherlink.com 1.10,2013-02-13 10:40:00,
2013-02-13 05:55:00,29.9,26.0,29.88,SW,220,0.0,-999.0,84,-99.99,,,0.00,0,weatherlink.com 1.10,2013-02-13 10:55:00,
2013-02-13 06:10:00,29.8,26.0,29.88,SW,220,0.0,-999.0,84,-99.99,,,0.00,0,weatherlink.com 1.10,2013-02-13 11:10:00,
2013-02-13 06:25:00,29.8,26.0,29.88,SW,220,1.0,-999.0,85,-99.99,,,0.00,0,weatherlink.com 1.10,2013-02-13 11:25:00,
2013-02-13 06:40:00,29.8,26.0,29.88,SW,220,0.0,-999.0,84,-99.99,,,0.00,0,weatherlink.com 1.10,2013-02-13 11:40:00,
2013-02-13 06:55:00,29.8,26.0,29.88,SW,220,0.0,-999.0,84,-99.99,,,0.00,0,weatherlink.com 1.10,2013-02-13 11:55:00,
2013-02-13 07:10:00,29.8,26.0,29.88,SW,220,0.0,-999.0,84,-99.99,,,0.00,0,weatherlink.com 1.10,2013-02-13 12:10:00,
2013-02-13 07:25:00,29.9,25.0,29.88,SW,220,0.0,-999.0,83,-99.99,,,0.00,9,weatherlink.com 1.10,2013-02-13 12:25:00,
2013-02-13 07:40:00,30.0,25.0,29.87,SW,221,0.0,-999.0,83,-99.99,,,0.00,19,weatherlink.com 1.10,2013-02-13 12:40:00,
2013-02-13 07:56:00,30.3,25.0,29.87,SW,216,0.0,-999.0,82,-99.99,,,0.00,0,weatherlink.com 1.10,2013-02-13 12:56:00,
2013-02-13 08:11:00,30.6,25.0,29.87,SW,216,0.0,-999.0,81,-99.99,,,0.00,9,weatherlink.com 1.10,2013-02-13 13:11:00,
2013-02-13 08:26:00,31.0,26.0,29.86,SW,225,4.0,-999.0,80,-99.99,,,0.00,35,weatherlink.com 1.10,2013-02-13 13:26:00,
2013-02-13 08:41:00,31.4,26.0,29.86,SW,226,1.0,-999.0,80,-99.99,,,0.00,39,weatherlink.com 1.10,2013-02-13 13:41:00,
2013-02-13 08:56:00,31.9,26.0,29.86,SW,224,0.0,-999.0,79,-99.99,,,0.00,105,weatherlink.com 1.10,2013-02-13 13:56:00,
2013-02-13 09:11:00,32.3,26.0,29.85,SW,230,0.0,-999.0,77,-99.99,,,0.00,102,weatherlink.com 1.10,2013-02-13 14:11:00,
2013-02-13 09:26:00,32.9,26.0,29.85,SW,215,6.0,-999.0,75,-99.99,,,0.00,139,weatherlink.com 1.10,2013-02-13 14:26:00,
2013-02-13 09:41:00,33.3,26.0,29.85,SW,232,0.0,-999.0,73,-99.99,,,0.00,162,weatherlink.com 1.10,2013-02-13 14:41:00,
2013-02-13 09:56:00,33.7,25.0,29.85,South,188,2.0,-999.0,71,-99.99,,,0.00,204,weatherlink.com 1.10,2013-02-13 14:56:00,
2013-02-13 10:11:00,34.3,25.0,29.85,SSW,200,5.0,-999.0,70,-99.99,,,0.00,220,weatherlink.com 1.10,2013-02-13 15:11:00,
2013-02-13 10:26:00,34.4,24.0,29.84,WSW,242,5.0,-999.0,67,-99.99,,,0.00,214,weatherlink.com 1.10,2013-02-13 15:26:00,
2013-02-13 10:41:00,34.4,23.0,29.84,WSW,253,5.0,-999.0,64,-99.99,,,0.00,234,weatherlink.com 1.10,2013-02-13 15:41:00,
2013-02-13 10:56:00,34.5,23.0,29.84,WSW,238,2.0,-999.0,62,-99.99,,,0.00,214,weatherlink.com 1.10,2013-02-13 15:56:00,
2013-02-13 11:11:00,35.0,22.0,29.83,SSW,210,4.0,-999.0,60,-99.99,,,0.00,209,weatherlink.com 1.10,2013-02-13 16:11:00,
2013-02-13 11:26:00,35.1,22.0,29.83,WNW,302,6.0,-999.0,60,-99.99,,,0.00,258,weatherlink.com 1.10,2013-02-13 16:26:00,
2013-02-13 11:41:00,35.3,23.0,29.82,WNW,292,4.0,-999.0,61,-99.99,,,0.00,278,weatherlink.com 1.10,2013-02-13 16:41:00,
2013-02-13 11:56:00,35.6,22.0,29.81,West,281,4.0,-999.0,59,-99.99,,,0.00,281,weatherlink.com 1.10,2013-02-13 16:56:00,
2013-02-13 12:11:00,35.6,23.0,29.80,WNW,290,2.0,-999.0,60,-99.99,,,0.00,292,weatherlink.com 1.10,2013-02-13 17:11:00,
2013-02-13 12:26:00,36.0,22.0,29.79,West,281,8.0,-999.0,58,-99.99,,,0.00,668,weatherlink.com 1.10,2013-02-13 17:26:00,
2013-02-13 12:41:00,36.5,23.0,29.80,SW,236,1.0,-999.0,58,-99.99,,,0.00,754,weatherlink.com 1.10,2013-02-13 17:41:00,
2013-02-13 12:56:00,37.1,23.0,29.79,SSE,163,6.0,-999.0,56,-99.99,,,0.00,218,weatherlink.com 1.10,2013-02-13 17:56:00,
2013-02-13 13:11:00,37.5,23.0,29.79,SSW,204,5.0,-999.0,56,-99.99,,,0.00,255,weatherlink.com 1.10,2013-02-13 18:11:00,
2013-02-13 13:26:00,37.4,24.0,29.79,WNW,292,2.0,-999.0,58,-99.99,,,0.00,656,weatherlink.com 1.10,2013-02-13 18:26:00,
2013-02-13 13:41:00,36.6,22.0,29.78,ESE,117,6.0,-999.0,56,-99.99,,,0.00,186,weatherlink.com 1.10,2013-02-13 18:41:00,
2013-02-13 13:56:00,37.1,23.0,29.77,SSE,150,5.0,-999.0,58,-99.99,,,0.00,578,weatherlink.com 1.10,2013-02-13 18:56:00,
2013-02-13 14:11:00,36.6,22.0,29.77,SE,126,6.0,-999.0,57,-99.99,,,0.00,459,weatherlink.com 1.10,2013-02-13 19:11:00,
2013-02-13 14:26:00,36.7,24.0,29.76,ESE,107,1.0,-999.0,61,-99.99,,,0.00,411,weatherlink.com 1.10,2013-02-13 19:26:00,
2013-02-13 14:42:00,37.0,23.0,29.75,NNE,30,1.0,-999.0,58,-99.99,,,0.00,374,weatherlink.com 1.10,2013-02-13 19:42:00,
2013-02-13 14:57:00,36.9,23.0,29.76,ESE,103,9.0,-999.0,57,-99.99,,,0.00,366,weatherlink.com 1.10,2013-02-13 19:57:00,
2013-02-13 15:27:00,37.0,23.0,29.75,East,80,5.0,-999.0,57,-99.99,,,0.00,278,weatherlink.com 1.10,2013-02-13 20:27:00,
2013-02-13 15:42:00,36.6,23.0,29.75,East,100,6.0,-999.0,58,-99.99,,,0.00,185,weatherlink.com 1.10,2013-02-13 20:42:00,
2013-02-13 15:57:00,36.6,23.0,29.75,East,79,4.0,-999.0,58,-99.99,,,0.00,204,weatherlink.com 1.10,2013-02-13 20:57:00,
2013-02-13 16:12:00,36.8,23.0,29.74,ENE,78,2.0,-999.0,58,-99.99,,,0.00,105,weatherlink.com 1.10,2013-02-13 21:12:00,
2013-02-13 16:27:00,36.9,23.0,29.73,North,360,0.0,-999.0,57,-99.99,,,0.00,97,weatherlink.com 1.10,2013-02-13 21:27:00,
2013-02-13 16:42:00,36.9,23.0,29.73,North,5,0.0,-999.0,58,-99.99,,,0.00,28,weatherlink.com 1.10,2013-02-13 21:42:00,
2013-02-13 16:57:00,36.5,23.0,29.73,NNE,32,2.0,-999.0,58,-99.99,,,0.00,0,weatherlink.com 1.10,2013-02-13 21:57:00,
2013-02-13 17:12:00,36.0,22.0,29.73,NE,36,1.0,-999.0,58,-99.99,,,0.00,0,weatherlink.com 1.10,2013-02-13 22:12:00,
2013-02-13 17:27:00,35.5,22.0,29.73,NNE,28,0.0,-999.0,59,-99.99,,,0.00,0,weatherlink.com 1.10,2013-02-13 22:27:00,
2013-02-13 17:42:00,35.1,22.0,29.73,NNE,28,0.0,-999.0,60,-99.99,,,0.00,0,weatherlink.com 1.10,2013-02-13 22:42:00,
2013-02-13 17:57:00,34.4,22.0,29.74,North,9,0.0,-999.0,62,-99.99,,,0.00,0,weatherlink.com 1.10,2013-02-13 22:57:00,
2013-02-13 18:12:00,33.5,22.0,29.73,NNW,348,3.0,-999.0,63,-99.99,,,0.00,0,weatherlink.com 1.10,2013-02-13 23:12:00,
2013-02-13 18:27:00,32.9,22.0,29.74,NNW,330,4.0,-999.0,65,-99.99,,,0.00,0,weatherlink.com 1.10,2013-02-13 23:27:00,
2013-02-13 18:42:00,32.5,22.0,29.74,NNW,330,0.0,-999.0,65,-99.99,,,0.00,0,weatherlink.com 1.10,2013-02-13 23:42:00,
2013-02-13 18:57:00,32.1,22.0,29.75,NNW,330,0.0,-999.0,66,-99.99,,,0.00,0,weatherlink.com 1.10,2013-02-13 23:57:00,
2013-02-13 19:12:00,31.8,22.0,29.75,NNW,330,0.0,-999.0,67,-99.99,,,0.00,0,weatherlink.com 1.10,2013-02-14 00:12:00,
2013-02-13 19:27:00,31.4,22.0,29.76,NNW,330,0.0,-999.0,68,-99.99,,,0.00,0,weatherlink.com 1.10,2013-02-14 00:27:00,
2013-02-13 19:42:00,30.8,21.0,29.76,NNW,330,0.0,-999.0,68,-99.99,,,0.00,0,weatherlink.com 1.10,2013-02-14 00:42:00,
2013-02-13 19:57:00,30.1,21.0,29.76,NNW,330,0.0,-999.0,69,-99.99,,,0.00,0,weatherlink.com 1.10,2013-02-14 00:57:00,
2013-02-13 20:12:00,29.3,21.0,29.76,NNW,330,0.0,-999.0,71,-99.99,,,0.00,0,weatherlink.com 1.10,2013-02-14 01:12:00,
2013-02-13 20:27:00,28.9,21.0,29.77,NNW,330,0.0,-999.0,72,-99.99,,,0.00,0,weatherlink.com 1.10,2013-02-14 01:27:00,
2013-02-13 20:42:00,28.3,21.0,29.77,NNW,330,0.0,-999.0,73,-99.99,,,0.00,0,weatherlink.com 1.10,2013-02-14 01:42:00,
2013-02-13 20:57:00,27.7,20.0,29.77,NNW,330,0.0,-999.0,74,-99.99,,,0.00,0,weatherlink.com 1.10,2013-02-14 01:57:00,
2013-02-13 21:12:00,27.0,20.0,29.77,NNW,331,0.0,-999.0,75,-99.99,,,0.00,0,weatherlink.com 1.10,2013-02-14 02:12:00,
2013-02-13 21:27:00,26.5,20.0,29.78,NNW,330,0.0,-999.0,76,-99.99,,,0.00,0,weatherlink.com 1.10,2013-02-14 02:27:00,
2013-02-13 21:42:00,26.3,20.0,29.78,NNW,330,0.0,-999.0,78,-99.99,,,0.00,0,weatherlink.com 1.10,2013-02-14 02:42:00,
2013-02-13 21:57:00,25.8,20.0,29.78,NNW,330,0.0,-999.0,78,-99.99,,,0.00,0,weatherlink.com 1.10,2013-02-14 02:57:00,
2013-02-13 22:12:00,25.2,19.0,29.79,NNW,330,0.0,-999.0,78,-99.99,,,0.00,0,weatherlink.com 1.10,2013-02-14 03:12:00,
2013-02-13 22:27:00,24.8,19.0,29.79,NNW,330,0.0,-999.0,79,-99.99,,,0.00,0,weatherlink.com 1.10,2013-02-14 03:27:00,
2013-02-13 22:42:00,24.2,19.0,29.79,NNW,330,0.0,-999.0,80,-99.99,,,0.00,0,weatherlink.com 1.10,2013-02-14 03:42:00,
2013-02-13 22:57:00,23.6,18.0,29.79,NNW,331,0.0,-999.0,80,-99.99,,,0.00,0,weatherlink.com 1.10,2013-02-14 03:57:00,
2013-02-13 23:12:00,23.1,18.0,29.79,NNW,330,0.0,-999.0,81,-99.99,,,0.00,0,weatherlink.com 1.10,2013-02-14 04:12:00,
2013-02-13 23:42:00,22.5,18.0,29.80,NW,325,2.0,-999.0,84,-99.99,,,0.00,0,weatherlink.com 1.10,2013-02-14 04:42:00,